Preston, Minnesota, United States (55965)
Lat: 43.67N, Lon: 92.08W
Wx Zone: MNZ095
Local Info
Past Weather Observations for Friday, September 23, 2016

NOTE: This archive is for the closest National Weather Service station to Preston. Information may differ from the station used for current weather conditions.

Click here for Long-term Archive

Time Weather Temperature Dewpoint Humidity Pressure Winds Precip Visibility
23:54
Mostly Cloudy
63°F / 17°C 59°F / 15°C 88% 30.12 in
(1020 mb)
ESE 9.2 mph
(ESE 15 kph)
- 7SM
23:34
Overcast
63°F / 17°C 59°F / 15°C 88% 30.12 in
(1020 mb)
SE 6.9 mph
(SE 11 kph)
- 7SM
23:14
Overcast
63°F / 17°C 59°F / 15°C 88% 30.12 in
(1020 mb)
SE 8.1 mph
(SE 13 kph)
- 10SM
22:54
Overcast
63°F / 17°C 59°F / 15°C 88% 30.12 in
(1020 mb)
ESE 9.2 mph
(ESE 15 kph)
- 10SM
22:34
Overcast
63°F / 17°C 59°F / 15°C 88% 30.12 in
(1020 mb)
SE 8.1 mph
(SE 13 kph)
- 7SM
22:14
Overcast
63°F / 17°C 59°F / 15°C 88% 30.12 in
(1020 mb)
SE 8.1 mph
(SE 13 kph)
- 7SM
21:54
Overcast
63°F / 17°C 59°F / 15°C 88% 30.12 in
(1020 mb)
SE 9.2 mph
(SE 15 kph)
- 10SM
21:34
Overcast
63°F / 17°C 59°F / 15°C 88% 30.12 in
(1020 mb)
SE 9.2 mph
(SE 15 kph)
- 7SM
21:15
Overcast
63°F / 17°C 59°F / 15°C 88% 30.12 in
(1020 mb)
ESE 9.2 mph
(ESE 15 kph)
- 7SM
20:54
Overcast
63°F / 17°C 59°F / 15°C 88% 30.12 in
(1020 mb)
ESE 9.2 mph
(ESE 15 kph)
- 7SM
20:34
Overcast
63°F / 17°C 59°F / 15°C 88% 30.12 in
(1020 mb)
ESE 10.4 mph
(ESE 17 kph)
- 10SM
20:15
Overcast
63°F / 17°C 59°F / 15°C 88% 30.12 in
(1020 mb)
E 10.4 mph
(E 17 kph)
- 7SM
19:54
Overcast
63°F / 17°C 59°F / 15°C 88% 30.12 in
(1020 mb)
E 8.1 mph
(E 13 kph)
- 10SM
19:34
Overcast
63°F / 17°C 59°F / 15°C 88% 30.15 in
(1021 mb)
ESE 6.9 mph
(ESE 11 kph)
- 10SM
19:14
Overcast
63°F / 17°C 59°F / 15°C 88% 30.15 in
(1021 mb)
E 8.1 mph
(E 13 kph)
- 10SM
18:54
Overcast
63°F / 17°C 59°F / 15°C 88% 30.12 in
(1020 mb)
E 8.1 mph
(E 13 kph)
- 10SM
18:34
Overcast
63°F / 17°C 59°F / 15°C 88% 30.12 in
(1020 mb)
ESE 8.1 mph
(ESE 13 kph)
- 10SM
18:14
Overcast
64°F / 18°C 59°F / 15°C 83% 30.12 in
(1020 mb)
SE 11.5 mph
(SE 19 kph)
- 7SM
17:54
Overcast
64°F / 18°C 59°F / 15°C 83% 30.12 in
(1020 mb)
ESE 9.2 mph
(ESE 15 kph)
- 10SM
17:34
Overcast
64°F / 18°C 59°F / 15°C 83% 30.12 in
(1020 mb)
ESE 9.2 mph
(ESE 15 kph)
- 7SM
17:14
Overcast
64°F / 18°C 59°F / 15°C 83% 30.12 in
(1020 mb)
ESE 10.4 mph
(ESE 17 kph)
- 7SM
16:54
Overcast
64°F / 18°C 59°F / 15°C 83% 30.12 in
(1020 mb)
E 8.1 mph
(E 13 kph)
- 7SM
16:34
Overcast
64°F / 18°C 59°F / 15°C 83% 30.12 in
(1020 mb)
ESE 9.2 mph
(ESE 15 kph)
- 7SM
16:14
Overcast
66°F / 19°C 59°F / 15°C 78% 30.12 in
(1020 mb)
ESE 6.9 mph
(ESE 11 kph)
- 10SM
15:54
Overcast
66°F / 19°C 59°F / 15°C 78% 30.12 in
(1020 mb)
ESE 9.2 mph
(ESE 15 kph)
- 7SM
15:34
Overcast
66°F / 19°C 59°F / 15°C 78% 30.09 in
(1019 mb)
SE 11.5 mph
(SE 19 kph)
- 7SM
15:14
Overcast
66°F / 19°C 59°F / 15°C 78% 30.12 in
(1020 mb)
E 11.5 mph
(E 19 kph)
- 10SM
14:54
Overcast
64°F / 18°C 59°F / 15°C 83% 30.12 in
(1020 mb)
ESE 9.2 mph
(ESE 15 kph)
- 10SM
14:34
Overcast
64°F / 18°C 59°F / 15°C 83% 30.12 in
(1020 mb)
ESE 12.7 mph
(ESE 20 kph)
- 10SM
14:14
Overcast
64°F / 18°C 59°F / 15°C 83% 30.12 in
(1020 mb)
SE 10.4 mph
(SE 17 kph)
- 10SM
13:54
Overcast
64°F / 18°C 59°F / 15°C 83% 30.12 in
(1020 mb)
ESE 10.4 mph
(ESE 17 kph)
- 10SM
13:34
Overcast
63°F / 17°C 59°F / 15°C 88% 30.12 in
(1020 mb)
ESE 11.5 mph
(ESE 19 kph)
- 10SM
13:14
Overcast
63°F / 17°C 59°F / 15°C 88% 30.12 in
(1020 mb)
E 8.1 mph
(E 13 kph)
- 7SM
12:54
Overcast
63°F / 17°C 59°F / 15°C 88% 30.12 in
(1020 mb)
ESE 9.2 mph
(ESE 15 kph)
- 7SM
12:34
Overcast
Thunder Storms
63°F / 17°C 59°F / 15°C 88% 30.12 in
(1020 mb)
E 11.5 mph
(E 19 kph)
- 10SM
12:14
Overcast
63°F / 17°C 59°F / 15°C 88% 30.15 in
(1021 mb)
E 11.5 mph
(E 19 kph)
- 10SM
11:54
Overcast
63°F / 17°C 59°F / 15°C 88% 30.15 in
(1021 mb)
ESE 9.2 mph
(ESE 15 kph)
- 10SM
11:34
Overcast
63°F / 17°C 59°F / 15°C 88% 30.15 in
(1021 mb)
E 12.7 mph
(E 20 kph)
- 10SM
11:14
Overcast
61°F / 16°C 59°F / 15°C 94% 30.15 in
(1021 mb)
ESE 6.9 mph
(ESE 11 kph)
- 10SM
10:54
Overcast
61°F / 16°C 59°F / 15°C 94% 30.15 in
(1021 mb)
ESE 10.4 mph
(ESE 17 kph)
- 10SM
10:34
Overcast
Fog And Mist
61°F / 16°C 59°F / 15°C 94% 30.15 in
(1021 mb)
ESE 10.4 mph
(ESE 17 kph)
- 5SM
10:14
Overcast
Fog And Mist
59°F / 15°C 59°F / 15°C 100% 30.15 in
(1021 mb)
ESE 11.5 mph
(ESE 19 kph)
- 2 1/2SM
09:54
Overcast
Fog And Mist
59°F / 15°C 57°F / 14°C 94% 30.15 in
(1021 mb)
E 10.4 mph
(E 17 kph)
- 1 1/2SM
09:34
Overcast
Fog And Mist
59°F / 15°C 57°F / 14°C 94% 30.15 in
(1021 mb)
E 11.5 mph
(E 19 kph)
- 1 1/2SM
09:14
Overcast
Fog And Mist
59°F / 15°C 57°F / 14°C 94% 30.15 in
(1021 mb)
E 10.4 mph
(E 17 kph)
- 2 1/2SM
08:54
Overcast
Fog And Mist
61°F / 16°C 59°F / 15°C 94% 30.15 in
(1021 mb)
E 11.5 mph
(E 19 kph)
- 2SM
08:34
Overcast
Fog And Mist
61°F / 16°C 59°F / 15°C 94% 30.15 in
(1021 mb)
E 12.7 mph
(E 20 kph)
- 1 3/4SM
08:14
Overcast
Fog And Mist
61°F / 16°C 59°F / 15°C 94% 30.15 in
(1021 mb)
E 9.2 mph
(E 15 kph)
- 1 1/2SM
07:55
Overcast
Fog And Mist
63°F / 17°C 61°F / 16°C 94% 30.15 in
(1021 mb)
E 10.4 mph
(E 17 kph)
- 1SM
07:34
Overcast
Fog And Mist
63°F / 17°C 61°F / 16°C 94% 30.15 in
(1021 mb)
ENE 9.2 mph
(ENE 15 kph)
- 1 1/4SM
07:14
Overcast
Fog And Mist
63°F / 17°C 61°F / 16°C 94% 30.12 in
(1020 mb)
E 10.4 mph
(E 17 kph)
- 1 1/2SM
06:54
Overcast
Fog And Mist
63°F / 17°C 61°F / 16°C 94% 30.12 in
(1020 mb)
E 10.4 mph
(E 17 kph)
- 2SM
06:34
Overcast
Fog And Mist
63°F / 17°C 61°F / 16°C 94% 30.12 in
(1020 mb)
E 5.8 mph
(E 9 kph)
- 3SM
06:14
Overcast
Fog And Mist
63°F / 17°C 61°F / 16°C 94% 30.12 in
(1020 mb)
E 6.9 mph
(E 11 kph)
- 4SM
05:54
Overcast
Fog And Mist
63°F / 17°C 61°F / 16°C 94% 30.12 in
(1020 mb)
E 8.1 mph
(E 13 kph)
- 5SM
05:34
Overcast
63°F / 17°C 61°F / 16°C 94% 30.12 in
(1020 mb)
E 9.2 mph
(E 15 kph)
- 7SM
05:14
Overcast
Fog And Mist
63°F / 17°C 61°F / 16°C 94% 30.09 in
(1019 mb)
E 10.4 mph
(E 17 kph)
- 5SM
04:54
Overcast
63°F / 17°C 61°F / 16°C 94% 30.09 in
(1019 mb)
E 8.1 mph
(E 13 kph)
- 7SM
04:34
Overcast
63°F / 17°C 61°F / 16°C 94% 30.09 in
(1019 mb)
ENE 5.8 mph
(ENE 9 kph)
- 7SM
04:14
Overcast
63°F / 17°C 61°F / 16°C 94% 30.09 in
(1019 mb)
NE 6.9 mph
(NE 11 kph)
- 7SM
03:54
Overcast
63°F / 17°C 61°F / 16°C 94% 30.06 in
(1018 mb)
NE 6.9 mph
(NE 11 kph)
- 7SM
03:34
Overcast
63°F / 17°C 61°F / 16°C 94% 30.06 in
(1018 mb)
ENE 5.8 mph
(ENE 9 kph)
- 7SM
03:14
Overcast
63°F / 17°C 61°F / 16°C 94% 30.06 in
(1018 mb)
NE 8.1 mph
(NE 13 kph)
- 7SM
02:54
Overcast
63°F / 17°C 61°F / 16°C 94% 30.06 in
(1018 mb)
ENE 4.6 mph
(ENE 7 kph)
- 7SM
02:34
Overcast
63°F / 17°C 61°F / 16°C 94% 30.09 in
(1019 mb)
NE 4.6 mph
(NE 7 kph)
- 10SM
02:14
Mostly Cloudy
63°F / 17°C 61°F / 16°C 94% 30.09 in
(1019 mb)
NE 4.6 mph
(NE 7 kph)
- 10SM
01:54
Partly Cloudy
63°F / 17°C 61°F / 16°C 94% 30.06 in
(1018 mb)
NE 5.8 mph
(NE 9 kph)
- 7SM
01:34
Mostly Cloudy
63°F / 17°C 61°F / 16°C 94% 30.06 in
(1018 mb)
ENE 4.6 mph
(ENE 7 kph)
- 7SM
01:14
Mostly Cloudy
63°F / 17°C 61°F / 16°C 94% 30.09 in
(1019 mb)
NE 5.8 mph
(NE 9 kph)
- 10SM
00:54
Partly Cloudy
Thunder Storms
63°F / 17°C 61°F / 16°C 94% 30.09 in
(1019 mb)
NE 4.6 mph
(NE 7 kph)
- 10SM
00:34
Mostly Cloudy
Thunder Storms
64°F / 18°C 61°F / 16°C 88% 30.09 in
(1019 mb)
E 4.6 mph
(E 7 kph)
- 10SM
00:14
Overcast
64°F / 18°C 61°F / 16°C 88% 30.09 in
(1019 mb)
NE 5.8 mph
(NE 9 kph)
- 10SM
Time Weather Temperature Dewpoint Humidity Pressure Winds Precip Visibility


Weather for websites

WeatherForYou.com, LLC is not responsible for any damages or problems caused by this service. Current weather conditions are obtained from the closest station including government and personal stations which may have varying degrees of accuracy. Weather forecasts are derived from the NOAA NDFD. Like all things, this site belongs to Jesus Christ... He just trusts us to maintain it. If you have any questions or comments email webmaster@weatherforyou.com

Copyright © 2016, WeatherForYou.com LLC. All rights reserved.